Regional Weather Roundup
Issued by NWS Green Bay, WI

Home | Current Version | Previous Version | Graphics & Text | Print | Product List | Glossary Off
Versions: 1 2 3 4 5 6 7 8 9 10 11 12 13 14 15 16 17 18 19 20 21 22 23 24 25 26 27 28 29 30 31 32 33 34 35 36 37 38 39 40 41 42 43 44 45 46 47 48 49 50

000
ASUS43 KGRB 031411
RWRGRB

NORTH-CENTRAL AND NORTHEAST WISCONSIN REGIONAL WEATHER ROUNDUP
NATIONAL WEATHER SERVICE GREEN BAY WI
900 AM CDT TUE MAY 03 2016

WIZ005-009-010>012-018-019-031500-
NORTH CENTRAL WISCONSIN

CITY           SKY/WX    TMP DP  RH WIND       PRES   REMARKS
IRONWOOD         N/A     57  34  41 W18       29.73F
MANITOWISH WTR CLOUDY    52  34  51 SW9       29.79F
ARBOR VITAE    CLOUDY    57  34  42 W10       29.81F
EAGLE RIVER    CLOUDY    52  32  46 W9        29.80F
LAND O LAKES   CLOUDY    55  32  41 W7        29.80F
RHINELANDER    CLOUDY    54  34  46 W12       29.84F
PHILLIPS       MOSUNNY   54  36  50 W10G16    29.83F
ANTIGO         SUNNY     56  35  44 W14       29.86F
TOMAHAWK       MOSUNNY   58  34  41 SW6G17    29.84F
MERRILL        SUNNY     57  37  48 W9        29.87F
$$

WIZ013-073-031500-
NORTHEAST WISCONSIN

CITY           SKY/WX    TMP DP  RH WIND       PRES   REMARKS
IRON MOUNTAIN  CLOUDY    59  33  37 W12G18    29.78F
MARINETTE      SUNNY     57  36  44 W7        29.83F
OCONTO         SUNNY     59  37  42 W13G18    29.84F
$$

WIZ017-030-035>037-045-031500-
CENTRAL WISCONSIN

CITY           SKY/WX    TMP DP  RH WIND       PRES   REMARKS
MEDFORD        SUNNY     54  40  58 W7        29.87F
WAUSAU         SUNNY     59  38  45 W12       29.86F
MOSINEE        SUNNY     57  37  47 W14       29.89F
MARSHFIELD     SUNNY     57  39  51 W10       29.89F
WISC RAPIDS    SUNNY     58  37  45 W8        29.92F
STEVENS POINT  SUNNY     55  37  49 W9        29.89F
WAUPACA        SUNNY     61  37  40 W9        29.90S
SHAWANO        SUNNY     60  37  42 W8        29.87F
CLINTONVILLE   SUNNY     59  36  41 W13       29.87F
WAUTOMA        SUNNY     60  38  43 W13       29.91F
$$

WIZ038-039-048-051-031500-
FOX VALLEY

CITY           SKY/WX    TMP DP  RH WIND       PRES   REMARKS
NWS GREEN BAY  SUNNY     59  39  47 W10       29.87F
APPLETON       MOSUNNY   55  37  50 W12       29.87F
OSHKOSH        SUNNY     58  39  49 W9        29.89F
FOND DU LAC    SUNNY     59  42  53 W8        29.91F
$$

WIZ022-050-052-031500-
EAST CENTRAL WISCONSIN

CITY           SKY/WX    TMP DP  RH WIND       PRES   REMARKS
EPHRAIM        FAIR      51  37  57 W10       29.83S
STURGEON BAY   MOSUNNY   55  36  47 W10       29.87S
MANITOWOC      SUNNY     58  39  49 MISG      29.88F
SHEBOYGAN      SUNNY     59  40  49 W9        29.90F
$$

LMZ563-521-522-541>543-031500-
LAKESHORE

STATION/POSITION TIME  TEMP    WIND        PRES    VSBY  WAVE
                       AIR SEA DIR/SP/G                  HT/PER
                 (UTC) (F)     (DEG/KT/KT) (MB)    (MI)  (FT/S)
SHEBOYGAN LKSHOR 1400   59     280/ 10/ 11 1012.6F
KEWAUNEE LKSHORE 1300   54     260/  7/  9 1010.9F
ALGOMA MARINA    1315          280/  9/ 11   N/A
NORTHPORT PIER   1300   52     220/  3/  6 1010.5F
N MID LAKE BUOY  1250   41 38  200/ 12/ 12 1010.5          1/ 3
CHAMBERS ISLAND  1300   49     200/  5/ 11 1010.8F
MENOMINEE LKSHOR 1300   51     230/  8/  9 1009.6F
$$




USA.gov is the U.S. government's official web portal to all federal, state and local government web resources and services.